Overview Statistics Trail Chart Weather Telemetry Raw packets
 

This is the latest recevied weather packets stored in our database for station/object OE3TEC-15. If no packets are shown the sender has not sent any weather packets the latest 10 day(s).

<< 21 22 23 24 25 >>
Time Temp. Humidity Pressure Rain* Wind** Luminosity Snow
1787762035 26.67° C 45% 1018.3 hPa 0 mm - 45 W/m² -
1787760819 27.78° C 42% 1018.4 hPa 0 mm - 58 W/m² -
1787758975 28.33° C 42% 1018.1 hPa 0 mm - 142 W/m² -
1787757739 27.22° C 43% 1018.1 hPa 0 mm - 88 W/m² -
1787755873 28.33° C 43% 1018.2 hPa 0 mm - 323 W/m² -
1787755268 27.22° C 45% 1018.2 hPa 0 mm - 84 W/m² -
1787753447 28.89° C 40% 1018.5 hPa 0 mm - 371 W/m² -
1787752808 28.33° C 43% 1018.6 hPa 0 mm - 399 W/m² -
1787752208 28.33° C 43% 1018.5 hPa 0 mm - 218 W/m² -
1787751573 28.89° C 42% 1018.6 hPa 0 mm - 547 W/m² -
1787750967 30° C 39% 1018.6 hPa 0 mm - 170 W/m² -
1787749116 28.89° C 41% 1018.6 hPa 0 mm - 534 W/m² -
1787746692 27.78° C 44% 1018.7 hPa 0 mm - 562 W/m² -
1787744249 26.67° C 47% 1019.1 hPa 0 mm - 601 W/m² -
1787743643 26.11° C 47% 1019.2 hPa 0 mm - 605 W/m² -
1787742428 26.11° C 47% 1019.2 hPa 0 mm - 611 W/m² -
1787741824 25.56° C 48% 1019.4 hPa 0 mm - 627 W/m² -
1787741187 25.56° C 49% 1019.3 hPa 0 mm - 635 W/m² -
1787739947 25° C 51% 1019.6 hPa 0 mm - 535 W/m² -
1787739344 25° C 49% 1019.8 hPa 0 mm - 656 W/m² -
1787738708 25° C 48% 1019.8 hPa 0 mm - 677 W/m² -
1787738104 23.89° C 52% 1019.9 hPa 0 mm - 644 W/m² -
1787737482 23.33° C 54% 1019.7 hPa 0 mm - 467 W/m² -
1787733799 20.56° C 61% 1020.1 hPa 0 mm - 348 W/m² -
1787733187 20.56° C 61% 1020 hPa 0 mm - 262 W/m² -

* Rain latest hour (hover to see other rain measurements)
** Current wind speed in m/s (hover to see current wind gust speed)